This demonstration page uses our WeatherBlox Daily Observations layout. Learn more.

Hourly Observations for April 21, 2018

Temp ( °F °C ) Dew Point ( °F °C ) Humidity (%) Winds ( mph kmh ) Pressure ( in mb ) Visibility ( mi km ) Precip ( " mm )
12:15 am 00:15 Cloudy with Light Rain 42 5.5 41 4.8 95 95 E 13 20 30.3 1026 7 11.26538 0.01 0.254
12:35 am 00:35 Cloudy with Light Rain 42 5.5 41 5 97 97 E 14 22 30.3 1026 7 11.26538 0.02 0.508
12:55 am 00:55 Cloudy with Rain 42 5.3 41 4.8 97 97 E 15 24 30.3 1026 7 11.26538 0.03 0.762
1:15 am 01:15 Cloudy with Light Rain 41 5.2 41 4.8 97 97 E 14 22 30.3 1026 7 11.26538 0.02 0.508
1:35 am 01:35 Cloudy with Light Rain 41 5.1 41 4.8 98 98 E 10 17 30.3 1026 7 11.26538 0.02 0.508
1:55 am 01:55 Cloudy with Light Rain 41 5.1 41 5 99 99 E 10 17 30.3 1026 7 11.26538 0.03 0.762
2:15 am 02:15 Cloudy with Light Rain 41 5 41 5 100 100 E 12 19 30.3 1026 7 11.26538 0.02 0.508
2:35 am 02:35 Cloudy with Light Drizzle 41 5 41 5 100 100 E 12 19 30.27 1025 7 11.26538 0.03 0.762
2:55 am 02:55 Cloudy with Drizzle 41 5 41 4.8 99 99 E 10 17 30.27 1025 7 11.26538 0.03 0.762
3:15 am 03:15 Cloudy with Light Drizzle 41 4.8 40 4.7 99 99 E 12 19 30.33 1027 7 11.26538 0 0
3:35 am 03:35 Cloudy 41 4.8 40 4.7 99 99 E 14 22 30.27 1025 10 16.0934 0 0
3:55 am 03:55 Cloudy 41 4.8 40 4.6 99 99 E 10 17 30.27 1025 10 16.0934 0 0
4:15 am 04:15 Cloudy 40 4.7 40 4.6 99 99 E 9 15 30.24 1024 10 16.0934 0 0
4:35 am 04:35 Cloudy 40 4.6 40 4.5 99 99 E 6 9 30.3 1026 10 16.0934 0 0
4:55 am 04:55 Cloudy 40 4.5 40 4.5 100 100 ENE 8 13 30.3 1026 10 16.0934 0 0
5:15 am 05:15 Cloudy 40 4.5 40 4.5 100 100 NE 8 13 30.24 1024 7 11.26538 0 0
5:35 am 05:35 Cloudy 40 4.5 40 4.5 100 100 NE 10 17 30.24 1024 7 11.26538 0 0
5:55 am 05:55 Cloudy 40 4.5 40 4.5 100 100 ENE 7 11 30.24 1024 7 11.26538 0 0
6:15 am 06:15 Cloudy 40 4.4 40 4.4 100 100 NE 7 11 30.27 1025 7 11.26538 0 0
6:35 am 06:35 Cloudy 40 4.3 40 4.3 100 100 NE 10 17 30.27 1025 7 11.26538 0 0
6:55 am 06:55 Cloudy 40 4.4 40 4.4 100 100 NE 13 20 30.27 1025 10 16.0934 0 0
7:15 am 07:15 Cloudy 40 4.4 40 4.2 99 99 NE 9 15 30.27 1025 10 16.0934 0 0
7:35 am 07:35 Cloudy 40 4.5 40 4.2 98 98 ENE 9 15 30.24 1024 10 16.0934 0 0
7:55 am 07:55 Cloudy 40 4.6 39 4.1 97 97 NE 10 17 30.3 1026 10 16.0934 0 0
8:15 am 08:15 Cloudy with Light Drizzle 40 4.6 39 4.1 97 97 NE 9 15 30.3 1026 10 16.0934 0 0
8:35 am 08:35 Cloudy with Light Rain 40 4.5 39 4.1 97 97 NE 7 11 30.3 1026 10 16.0934 0 0
8:55 am 08:55 Cloudy with Light Rain 40 4.5 40 4.2 98 98 NE 7 11 30.3 1026 10 16.0934 0 0
9:15 am 09:15 Cloudy with Light Drizzle 40 4.5 40 4.3 99 99 NE 8 13 30.3 1026 10 16.0934 0 0
9:35 am 09:35 Cloudy 40 4.6 40 4.5 99 99 NNE 9 15 30.3 1026 10 16.0934 0 0
9:55 am 09:55 Cloudy with Light Drizzle 41 4.8 40 4.5 98 98 NE 9 15 30.27 1025 10 16.0934 0 0
10:15 am 10:15 Cloudy with Light Drizzle 41 5 40 4.7 98 98 ENE 10 17 30.27 1025 7 11.26538 0 0
10:35 am 10:35 Cloudy with Light Rain 41 5 40 4.7 98 98 ENE 13 20 30.27 1025 7 11.26538 0 0
10:55 am 10:55 Cloudy with Light Drizzle 41 5.1 40 4.6 97 97 ENE 14 22 30.27 1025 5 8.0467 0 0
11:15 am 11:15 Cloudy with Light Rain 41 5 40 4.4 96 96 ENE 15 24 30.27 1025 5 8.0467 0 0
11:35 am 11:35 Cloudy 42 5.3 40 4.6 95 95 ENE 15 24 30.27 1025 10 16.0934 0 0
11:55 am 11:55 Cloudy 42 5.6 41 4.9 95 95 ENE 14 22 30.27 1025 10 16.0934 0 0
12:15 pm 12:15 Cloudy 42 5.5 40 4.2 91 91 E 10 17 30.27 1025 10 16.0934 0 0
12:35 pm 12:35 Cloudy 41 5.2 39 4.1 93 93 E 8 13 30.27 1025 10 16.0934 0 0
12:55 pm 12:55 Cloudy 42 5.8 41 4.9 94 94 ENE 9 15 30.27 1025 10 16.0934 0 0
1:15 pm 13:15 Cloudy 42 5.8 40 4.6 92 92 ENE 8 13 30.24 1024 10 16.0934 0 0
1:35 pm 13:35 Cloudy 43 6.1 40 4.7 91 91 ENE 10 17 30.24 1024 10 16.0934 0 0
1:55 pm 13:55 Cloudy 43 6.3 40 4.6 89 89 NE 10 17 30.24 1024 10 16.0934 0 0
2:15 pm 14:15 Cloudy 43 6.1 40 4.5 90 90 NE 9 15 30.24 1024 10 16.0934 0 0
2:35 pm 14:35 Cloudy 43 6.2 40 4.4 88 88 NE 10 17 30.24 1024 10 16.0934 0 0
2:55 pm 14:55 Cloudy with Light Rain 43 6.2 40 4.5 89 89 NE 9 15 30.24 1024 10 16.0934 0 0
3:15 pm 15:15 Cloudy 43 6.3 40 4.5 88 88 NE 9 15 30.24 1024 10 16.0934 0 0
3:35 pm 15:35 Cloudy 43 6.2 40 4.2 87 87 NE 9 15 30.24 1024 10 16.0934 0 0
3:55 pm 15:55 Cloudy 44 6.4 40 4.3 87 87 NE 10 17 30.24 1024 10 16.0934 0 0
4:15 pm 16:15 Cloudy 43 6.3 40 4.5 88 88 NE 10 17 30.24 1024 10 16.0934 0 0
4:35 pm 16:35 Cloudy 43 6.2 40 4.3 88 88 ENE 10 17 30.24 1024 10 16.0934 0 0
4:55 pm 16:55 Cloudy 43 6 40 4.5 90 90 NE 9 15 30.24 1024 10 16.0934 0 0
5:15 pm 17:15 Cloudy 43 6 40 4.6 91 91 NE 10 17 30.24 1024 10 16.0934 0 0
5:35 pm 17:35 Cloudy 42 5.6 40 4.7 94 94 ENE 7 11 30.24 1024 7 11.26538 0 0
5:55 pm 17:55 Cloudy with Mist and Fog 42 5.5 41 5.2 98 98 NE 5 7 30.24 1024 4 6.43736 0 0
6:15 pm 18:15 Cloudy 42 5.6 42 5.3 98 98 NE 9 15 30.24 1024 10 16.0934 0 0
6:35 pm 18:35 Cloudy with Mist and Fog 42 5.5 41 5.2 98 98 NE 6 9 30.24 1024 5 8.0467 0 0
6:55 pm 18:55 Cloudy 42 5.6 42 5.5 99 99 NE 6 9 30.24 1024 10 16.0934 0 0
7:15 pm 19:15 Cloudy 42 5.8 41 5.2 96 96 ENE 8 13 30.24 1024 10 16.0934 0 0
7:35 pm 19:35 Cloudy 42 5.6 41 5 96 96 ENE 9 15 30.24 1024 10 16.0934 0 0
7:55 pm 19:55 Cloudy 42 5.5 41 4.8 95 95 ENE 6 9 30.27 1025 10 16.0934 0 0
8:15 pm 20:15 Cloudy 42 5.5 41 5 97 97 NE 5 7 30.24 1024 10 16.0934 0 0
8:35 pm 20:35 Cloudy 42 5.5 41 4.9 96 96 NE 5 7 30.27 1025 10 16.0934 0 0
8:55 pm 20:55 Cloudy 42 5.3 40 4.7 96 96 ENE 6 9 30.27 1025 10 16.0934 0 0
9:15 pm 21:15 Cloudy 41 5.1 40 4.6 97 97 NE 5 7 30.27 1025 10 16.0934 0 0
9:35 pm 21:35 Cloudy 41 5.1 40 4.7 97 97 NE 3 6 30.27 1025 10 16.0934 0 0
9:55 pm 21:55 Cloudy 41 5.1 41 4.8 98 98 N 5 7 30.27 1025 10 16.0934 0 0
10:15 pm 22:15 Cloudy 41 5 40 4.7 98 98 Calm 30.27 1025 10 16.0934 0 0
10:35 pm 22:35 Cloudy 41 5 40 4.6 97 97 Calm 30.27 1025 10 16.0934 0 0
10:55 pm 22:55 Cloudy 41 4.8 40 4.7 99 99 N 3 6 30.27 1025 7 11.26538 0 0
11:15 pm 23:15 Cloudy 41 4.8 41 4.8 100 100 Calm 30.27 1025 7 11.26538 0 0
11:35 pm 23:35 Cloudy 40 4.7 40 4.7 100 100 N 3 6 30.3 1026 7 11.26538 0 0
11:55 pm 23:55 Cloudy 40 4.6 40 4.6 100 100 N 3 6 30.3 1026 7 11.26538 0 0

Powered by AerisWeather